Location: Hurstbourne Priors
(51.2000°N, 1.3667°W)
Time: 20:30:37
(UTC+00:00)

Transit 4A - Pass Details

Date: 27 April 2021
Orbit: 870 x 974 km, 66.8° (Epoch: 09 May)

Event Time Altitude Azimuth Distance (km) Brightness Sun altitude
Rises 07:23:40 0° 318° (NW) 3,512 10.5 23.4°
Reaches altitude 10° 07:26:24 10° 309° (NW) 2,555 9.8 23.8°
Maximum altitude 07:31:34 33° 248° (WSW) 1,445 8.7 24.6°
Drops below altitude 10° 07:36:39 10° 186° (S) 2,512 10.3 25.4°
Sets 07:39:20 0° 177° (S) 3,444 11.0 25.8°
